Hewitt, WI

5:35 AM CST on February 11, 2016 (GMT -0600)
APRSWXNET | | Change Station
CLOSE
Current Station
Personal Weather Station
Location: Hewitt, WI
Elevation: 1243 ft
Nearby Weather Stations

Elev 1243 ft 44.64 °N, 90.10 °W | Updated 17 minutes ago

Mostly Cloudy
Mostly Cloudy
-2 °F
Feels Like -2 °F
N
1
Wind Variable Wind from NW
Gusts 3.0 mph

Today
High -- | Low -- °F
--% Chance of Precip.
Yesterday
High -- | Low -- °F
Precip. -- in
Pressure 30.32 in
Visibility 10.0 miles
Clouds Clear
Windchill -2 °F
Dew Point -9 °F
Humidity 73%
Rainfall in
Snow Depth Not available.
7:07 AM 5:22 PM
Waxing Crescent, 11% visible
METAR KMFI 111054Z AUTO 28003KT 10SM CLR M21/M24 A3021 RMK AO2 SLP265 I1000 T12061239
Pressure 30.32 in
Visibility 10.0 miles
Clouds Clear
Windchill -2 °F
Dew Point -9 °F
Humidity 73%
Rainfall in
Snow Depth Not available.
7:07 AM 5:22 PM
Waxing Crescent, 11% visible
METAR KMFI 111054Z AUTO 28003KT 10SM CLR M21/M24 A3021 RMK AO2 SLP265 I1000 T12061239

10-Day Weather Forecast

Almanac

Astronomy

Feb. 11, 2016 Rise Set
Actual Time
Civil Twilight
Nautical Twilight
Astronomical Twilight
Moon
Length of Visible Light
Length of Day
Tomorrow will be .
, % of the Moon is Illuminated

Today's Extremes

State Highs State Lows

Community

WunderPhotos

Upload Photos

1,892,030 photos uploaded!

WunderBlog® & News

Nearby

Air Quality

  Air Quality AQ Index Pollutant
Not available.

Snow Depth

Station Depth Elevation

Earthquake Activity

City Distance Mag. Time & Date
Minimum magnitude displayed is 2.5.

Coastal Water Temperatures

Place Temperature

Stations

Nearby Weather Stations

Station Location Temp. Windchill Dew Point Humidity Wind Precip. Elev Updated Type
                   

Watches & Warnings

There are currently no watches in effect.